Flight Track Log - Related Links

Times and Time Zones

All times are in EST time to prevent confusion due to time zone crossing. See the AAY843 flight status page for this flight to view local times or setup timezone preferences in your user account.

Time Position Orientation Groundspeed Altitude Reporting Facility
EST Latitude Longitude Course Direction KTS MPH feet Rate Location/Type
02:05PM 43.1075 -76.0836 78° East 201 231 1,200  Level Boston Center
02:05PM 43.1083 -76.0781 78° East 194 223 1,800 2,545 Climbing Boston Center
02:06PM 43.1053 -76.0069 93° East 219 252 4,000 2,143 Climbing Boston Center
02:07PM 43.0969 -75.9897 124° Southeast 222 255 4,800 3,035 Climbing Boston Center
02:08PM 43.0328 -75.9783 173° South 253 291 8,300 2,537 Climbing Boston Center
02:09PM 42.9869 -76.0767 238° Southwest 255 293 10,000 1,561 Climbing Boston Center
02:10PM 42.9461 -76.1639 237° Southwest 269 310 11,500 1,966 Climbing Boston Center
02:11PM 42.8708 -76.2386 216° Southwest 337 388 13,900 2,557 Climbing Boston Center
02:12PM 42.7919 -76.3089 213° Southwest 335 386 16,700 2,448 Climbing Boston Center
02:13PM 42.7142 -76.3817 215° Southwest 338 389 19,000 2,115 Climbing Boston Center
02:14PM 42.6361 -76.4544 214° Southwest 339 390 21,000 2,479 Climbing Boston Center
02:15PM 42.5581 -76.5272 214° Southwest 339 390 24,000 2,380 Climbing Boston Center
02:16PM 42.4758 -76.5653 199° South 334 384 25,800 1,289 Climbing Boston Center
02:17PM 42.3761 -76.5769 185° South 355 409 26,600 726 Climbing Boston Center
02:18PM 42.2778 -76.5911 186° South 354 407 27,300 1,248 Climbing Boston Center
02:19PM 42.1867 -76.6036 186° South 333 383 29,200 1,525 Climbing Boston Center
02:20PM 42.0989 -76.6164 186° South 321 369 30,400 885 Climbing Boston Center
02:21PM 42.0092 -76.6300 186° South 324 373 31,000 298 Climbing Boston Center
02:22PM 41.9056 -76.6447 186° South 341 392 31,000  Level Boston Center
02:23PM 41.8114 -76.6578 186° South 342 394 31,000  Level Boston Center
02:24PM 41.7181 -76.6711 186° South 341 392 31,000  Level Boston Center
02:25PM 41.6225 -76.6844 186° South 346 398 31,000  Level Boston Center
02:26PM 41.5272 -76.6986 186° South 347 399 31,000  Level Boston Center
02:27PM 41.4128 -76.7142 186° South 350 403 31,000  Level Boston Center
02:28PM 41.3192 -76.7283 186° South 341 392 31,000  Level Boston Center
02:29PM 41.2272 -76.7403 186° South 334 384 31,000  Level Boston Center
02:30PM 41.1339 -76.7553 187° South 337 388 31,000  Level Boston Center
02:31PM 41.0156 -76.7717 186° South 355 409 31,000  Level New York Center
02:32PM 40.9211 -76.7853 186° South 355 409 31,000  Level New York Center
02:33PM 40.8267 -76.7989 186° South 350 403 31,000  Level New York Center
02:34PM 40.7342 -76.8128 186° South 350 403 31,000  Level New York Center
02:35PM 40.6442 -76.8239 185° South 345 397 31,000  Level New York Center
02:37PM 40.5479 -76.8330 174° South  Level FlightAware Approximate
02:37PM 40.4617 -76.8433 174° South 340 391 31,000  Level New York Center
02:38PM 40.3603 -76.8292 174° South 346 398 31,000 -500 Level New York Center
02:39PM 40.2600 -76.7903 164° South 370 426 30,000 -933 Descending New York Center
02:41PM 40.1744 -76.7465 176° South  Level FlightAware Approximate
02:41PM 40.0733 -76.7742 176° South 357 411 28,200  Level New York Center
02:42PM 39.9756 -76.7711 179° South 352 405 28,000 -1,150 Descending New York Center
02:43PM 39.8817 -76.7686 179° South 347 399 25,900 -2,150 Descending New York Center
02:44PM 39.7881 -76.7686 180° South 347 399 23,700 -1,832 Descending New York Center
02:45PM 39.7331 -76.7653 177° South 345 397 23,000 -442 Descending Washington Center
02:46PM 39.6372 -76.7636 179° South 356 410 23,000  Level Washington Center
02:47PM 39.5433 -76.7622 179° South 356 410 23,000  Level Washington Center
02:48PM 39.4517 -76.7606 179° South 343 395 23,000  Level Washington Center
02:49PM 39.3581 -76.7592 179° South 343 395 23,000  Level Washington Center
02:50PM 39.2661 -76.7578 179° South 343 395 23,000  Level Washington Center
02:51PM 39.1703 -76.7561 179° South 343 395 23,000 -298 Level Washington Center
02:52PM 39.0786 -76.7519 178° South 343 395 22,400 -814 Descending Washington Center
02:53PM 38.9850 -76.7506 179° South 343 395 21,400 -1,008 Descending Washington Center
02:54PM 38.8892 -76.7492 179° South 343 395 20,400 -694 Descending Washington Center
02:55PM 38.7953 -76.7450 178° South 343 395 20,000 -198 Descending Washington Center
02:56PM 38.6994 -76.7433 179° South 343 395 20,000  Level Washington Center
02:57PM 38.6078 -76.7419 179° South 343 395 20,000  Level Washington Center
02:58PM 38.5075 -76.7406 179° South 343 395 20,000  Level Washington Center
02:59PM 38.4158 -76.7392 179° South 338 389 20,000  Level Washington Center
03:00PM 38.3219 -76.7350 178° South 338 389 20,000 -555 Level Washington Center
03:01PM 38.2283 -76.7308 178° South 338 389 18,900 -1,835 Descending Washington Center
03:02PM 38.1367 -76.7269 178° South 338 389 16,300 -2,262 Descending Washington Center
03:03PM 38.0469 -76.7256 179° South 332 382 14,300 -1,550 Descending Washington Center
03:04PM 37.9594 -76.7242 179° South 326 375 13,200 -1,311 Descending Washington Center
03:05PM 37.8717 -76.7228 179° South 326 375 11,700 -1,537 Descending Washington Center
03:06PM 37.7861 -76.7217 179° South 321 369 10,100 -857 Descending Washington Center
03:07PM 37.7008 -76.7178 178° South 316 364 10,000 -90 Descending Washington Center
03:07PM 37.6944 -76.7228 212° Southwest 306 352 10,000 -100 Level Washington Center
03:08PM 37.6153 -76.7164 176° South 311 358 9,900 -83 Descending Washington Center
03:08PM 37.5903 -76.7189 185° South 306 352 9,900  Level Washington Center
03:09PM 37.5319 -76.7153 177° South 311 358 9,900  Level Washington Center
03:09PM 37.5028 -76.6914 147° Southeast 295 339 9,900 -300 Level Washington Center
03:10PM 37.4719 -76.6489 132° Southeast 276 318 9,600 -1,100 Descending Washington Center
03:10PM 37.4472 -76.6147 132° Southeast 295 339 8,800 -1,869 Descending Washington Center
03:11PM 37.4183 -76.5725 131° Southeast 276 318 7,700 -2,129 Descending Washington Center
03:12PM 37.3956 -76.5408 132° Southeast 284 327 6,600 -2,586 Descending Washington Center
03:12PM 37.3689 -76.4986 128° Southeast 276 318 5,200 -2,500 Descending Washington Center
03:13PM 37.3461 -76.4697 135° Southeast 273 314 4,100 -1,900 Descending Washington Center
03:13PM 37.3192 -76.4328 133° Southeast 271 312 3,300 -1,672 Descending Washington Center
03:14PM 37.2903 -76.4167 156° South 224 258 2,400 -1,258 Descending Washington Center
03:14PM 37.2631 -76.4008 155° Southeast 246 283 2,000 -517 Descending Washington Center
03:14PM 37.2381 -76.3953 170° South 185 213 1,900 -300 Descending Washington Center
03:15PM 37.2175 -76.3872 163° South 205 236 1,700 -310 Descending Washington Center
03:15PM 37.2006 -76.3922 193° South 135 155 1,600 -207 Descending Washington Center
03:16PM 37.1797 -76.3975 191° South 157 181 1,500 -222 Descending Washington Center
03:16PM 37.1714 -76.4103 231° Southwest 121 139 1,400 -500 Descending Washington Center
03:17PM 37.1586 -76.4311 232° Southwest 128 147 1,000 -600 Descending Washington Center
03:17PM 37.1544 -76.4492 254° West 134 154 800 -571 Descending Washington Center

Login

Don't have an account? Register now (free) for customized features, flight alerts, and more!